When you browse on this site, cookies collect data to enhance your experience and personalize the content and advertising you see.
Visit our Privacy Policy to learn more. By continuing to use the site, you agree to this use of cookies and data.
  • în România
  • Lista ţărilor
  • Pe 7 zile
  • Temperatura apei
  • Hartă satelitară
  • Meteo pe hartă
  • Widget-uri
  • user-avatar
    Intrare

    Meteo pe oră la Dromore

    Astăzi, 20 Mai, Luni

    Timp Temperatura Precipitaţii Vânt Presiune Umiditate
    00:00 +7°C° 0 mm 2 m/s 750 mmHg 96%
    01:00 +6°C° 0 mm 2 m/s 750 mmHg 96%
    02:00 +7°C° 0 mm 1 m/s 750 mmHg 96%
    03:00 +6°C° 0 mm 1 m/s 750 mmHg 97%
    04:00 +7°C° 0 mm 1 m/s 750 mmHg 96%
    05:00 +7°C° 0 mm 1 m/s 750 mmHg 96%
    06:00 +7°C° 0 mm 2 m/s 750 mmHg 96%
    07:00 +8°C° 0 mm 2 m/s 751 mmHg 91%
    08:00 +10°C° 0 mm 2 m/s 751 mmHg 85%
    09:00 +12°C° 0 mm 2 m/s 751 mmHg 79%
    10:00 +13°C° 0.5 mm 1 m/s 751 mmHg 79%
    11:00 +13°C° 0.5 mm 1 m/s 751 mmHg 79%
    12:00 +13°C° 0 mm 2 m/s 752 mmHg 80%
    13:00 +14°C° 1 mm 2 m/s 752 mmHg 81%
    14:00 +14°C° 1 mm 2 m/s 752 mmHg 82%
    15:00 +14°C° 1 mm 2 m/s 751 mmHg 83%
    16:00 +13°C° 0.7 mm 2 m/s 752 mmHg 85%
    17:00 +12°C° 0.7 mm 3 m/s 752 mmHg 87%
    18:00 +12°C° 0.7 mm 3 m/s 752 mmHg 89%
    19:00 +10°C° 0.1 mm 3 m/s 752 mmHg 91%
    20:00 +9°C° 0.1 mm 2 m/s 752 mmHg 93%
    21:00 +8°C° 0.1 mm 2 m/s 753 mmHg 95%
    22:00 +7°C° 0 mm 2 m/s 753 mmHg 95%
    23:00 +6°C° 0 mm 2 m/s 753 mmHg 96%

    Mâine, 21 Mai, Marţi

    Timp Temperatura Precipitaţii Vânt Presiune Umiditate
    00:00 +6°C° 0 mm 2 m/s 753 mmHg 96%
    01:00 +6°C° 0 mm 2 m/s 753 mmHg 97%
    02:00 +5°C° 0 mm 2 m/s 753 mmHg 97%
    03:00 +5°C° 0 mm 2 m/s 754 mmHg 97%
    04:00 +6°C° 0 mm 2 m/s 754 mmHg 97%
    05:00 +6°C° 0 mm 2 m/s 754 mmHg 96%
    06:00 +7°C° 0 mm 2 m/s 754 mmHg 96%
    07:00 +8°C° 0 mm 2 m/s 754 mmHg 91%
    08:00 +10°C° 0 mm 2 m/s 754 mmHg 85%
    09:00 +12°C° 0 mm 2 m/s 755 mmHg 80%
    10:00 +13°C° 0 mm 2 m/s 755 mmHg 74%
    11:00 +14°C° 0 mm 2 m/s 755 mmHg 69%
    12:00 +15°C° 0 mm 2 m/s 755 mmHg 63%
    13:00 +14°C° 0.1 mm 2 m/s 755 mmHg 65%
    14:00 +14°C° 0.1 mm 1 m/s 755 mmHg 68%
    15:00 +14°C° 0.1 mm 1 m/s 755 mmHg 70%
    16:00 +14°C° 0.1 mm 1 m/s 755 mmHg 73%
    17:00 +13°C° 0.1 mm 2 m/s 755 mmHg 76%
    18:00 +13°C° 0.1 mm 2 m/s 755 mmHg 78%
    19:00 +12°C° 0.1 mm 2 m/s 755 mmHg 81%
    20:00 +10°C° 0.1 mm 2 m/s 755 mmHg 85%
    21:00 +8°C° 0.1 mm 2 m/s 755 mmHg 88%
    22:00 +9°C° 0 mm 1 m/s 755 mmHg 88%
    23:00 +8°C° 0 mm 1 m/s 755 mmHg 88%

    Poimâine, 22 Mai, Miercuri

    Timp Temperatura Precipitaţii Vânt Presiune Umiditate
    00:00 +7°C° 0 mm 1 m/s 755 mmHg 88%
    01:00 +6°C° 0 mm 1 m/s 755 mmHg 88%
    02:00 +6°C° 0 mm 1 m/s 755 mmHg 89%
    03:00 +5°C° 0 mm 1 m/s 755 mmHg 89%
    04:00 +6°C° 0 mm 1 m/s 754 mmHg 87%
    05:00 +6°C° 0 mm 0 m/s 754 mmHg 86%
    06:00 +7°C° 0 mm 0 m/s 754 mmHg 84%
    07:00 +9°C° 0 mm 0 m/s 754 mmHg 80%
    08:00 +10°C° 0 mm 0 m/s 754 mmHg 77%
    09:00 +13°C° 0 mm 1 m/s 754 mmHg 73%
    10:00 +14°C° 0 mm 1 m/s 754 mmHg 72%
    11:00 +15°C° 0 mm 1 m/s 754 mmHg 71%
    12:00 +15°C° 0 mm 1 m/s 754 mmHg 70%
    13:00 +15°C° 0.1 mm 1 m/s 754 mmHg 72%
    14:00 +15°C° 0.1 mm 1 m/s 754 mmHg 74%
    15:00 +15°C° 0.1 mm 2 m/s 754 mmHg 75%
    16:00 +15°C° 0.1 mm 2 m/s 753 mmHg 79%
    17:00 +14°C° 0.1 mm 2 m/s 753 mmHg 82%
    18:00 +13°C° 0.1 mm 2 m/s 753 mmHg 86%
    19:00 +12°C° 0 mm 2 m/s 753 mmHg 88%
    20:00 +10°C° 0 mm 2 m/s 753 mmHg 90%
    21:00 +10°C° 0 mm 1 m/s 753 mmHg 92%
    22:00 +10°C° 0 mm 1 m/s 752 mmHg 92%
    23:00 +11°C° 0 mm 1 m/s 752 mmHg 91%

    23 Mai, Joi

    Timp Temperatura Precipitaţii Vânt Presiune Umiditate
    00:00 +11°C° 0 mm 1 m/s 752 mmHg 91%
    01:00 +11°C° 0 mm 1 m/s 752 mmHg 92%
    02:00 +9°C° 0 mm 2 m/s 752 mmHg 93%
    03:00 +9°C° 0 mm 2 m/s 751 mmHg 94%
    04:00 +9°C° 0 mm 2 m/s 751 mmHg 93%
    05:00 +9°C° 0 mm 2 m/s 751 mmHg 91%
    06:00 +9°C° 0 mm 2 m/s 751 mmHg 90%
    07:00 +10°C° 0 mm 3 m/s 751 mmHg 88%
    08:00 +11°C° 0 mm 3 m/s 751 mmHg 85%
    09:00 +12°C° 0 mm 3 m/s 751 mmHg 83%
    10:00 +11°C° 0.3 mm 3 m/s 751 mmHg 86%
    11:00 +11°C° 0.3 mm 3 m/s 751 mmHg 90%
    12:00 +11°C° 0.3 mm 3 m/s 751 mmHg 93%
    13:00 +12°C° 0 mm 3 m/s 751 mmHg 90%
    14:00 +13°C° 0 mm 3 m/s 750 mmHg 87%
    15:00 +14°C° 0 mm 3 m/s 750 mmHg 84%
    16:00 +15°C° 0.4 mm 2 m/s 750 mmHg 87%
    17:00 +15°C° 0.4 mm 2 m/s 750 mmHg 90%
    18:00 +14°C° 0.4 mm 2 m/s 750 mmHg 93%
    19:00 +13°C° 0 mm 2 m/s 750 mmHg 93%
    20:00 +13°C° 0 mm 2 m/s 750 mmHg 93%
    21:00 +12°C° 0 mm 2 m/s 750 mmHg 94%
    22:00 +12°C° 0.2 mm 2 m/s 750 mmHg 94%
    23:00 +10°C° 0.2 mm 2 m/s 750 mmHg 95%

    24 Mai, Vineri

    Timp Temperatura Precipitaţii Vânt Presiune Umiditate
    00:00 +10°C° 0.2 mm 2 m/s 750 mmHg 95%
    01:00 +9°C° 0 mm 2 m/s 750 mmHg 96%
    02:00 +9°C° 0 mm 2 m/s 749 mmHg 97%
    03:00 +8°C° 0 mm 2 m/s 749 mmHg 97%
    04:00 +8°C° 0 mm 2 m/s 749 mmHg 97%
    05:00 +9°C° 0 mm 3 m/s 750 mmHg 97%
    06:00 +9°C° 0 mm 3 m/s 750 mmHg 97%
    07:00 +10°C° 0 mm 3 m/s 750 mmHg 94%
    08:00 +11°C° 0 mm 3 m/s 750 mmHg 91%
    09:00 +12°C° 0 mm 3 m/s 751 mmHg 89%
    10:00 +13°C° 0.2 mm 3 m/s 751 mmHg 85%
    11:00 +14°C° 0.2 mm 3 m/s 751 mmHg 81%
    12:00 +16°C° 0.2 mm 3 m/s 751 mmHg 77%
    13:00 +16°C° 0.2 mm 3 m/s 751 mmHg 77%
    14:00 +17°C° 0.2 mm 3 m/s 751 mmHg 77%
    15:00 +17°C° 0.2 mm 3 m/s 751 mmHg 77%
    16:00 +17°C° 0.2 mm 3 m/s 751 mmHg 79%
    17:00 +16°C° 0.2 mm 3 m/s 751 mmHg 82%
    18:00 +16°C° 0.2 mm 2 m/s 751 mmHg 85%
    19:00 +14°C° 0.1 mm 2 m/s 751 mmHg 88%
    20:00 +13°C° 0.1 mm 1 m/s 751 mmHg 91%
    21:00 +11°C° 0.1 mm 1 m/s 752 mmHg 94%
    22:00 +11°C° 0 mm 1 m/s 751 mmHg 94%
    23:00 +11°C° 0 mm 1 m/s 751 mmHg 95%

    25 Mai, Sâmbătă

    Timp Temperatura Precipitaţii Vânt Presiune Umiditate
    00:00 +11°C° 0 mm 1 m/s 751 mmHg 95%
    01:00 +11°C° 0.3 mm 1 m/s 751 mmHg 96%
    02:00 +10°C° 0.3 mm 0 m/s 751 mmHg 96%
    03:00 +10°C° 0.3 mm 0 m/s 750 mmHg 96%
    04:00 +10°C° 0.6 mm 0 m/s 750 mmHg 97%
    05:00 +12°C° 0.6 mm 1 m/s 750 mmHg 97%
    06:00 +12°C° 0.6 mm 1 m/s 750 mmHg 97%
    07:00 +12°C° 0 mm 1 m/s 751 mmHg 96%
    08:00 +13°C° 0 mm 1 m/s 751 mmHg 95%
    09:00 +13°C° 0 mm 1 m/s 751 mmHg 94%
    10:00 +14°C° 0 mm 1 m/s 752 mmHg 90%
    11:00 +15°C° 0 mm 1 m/s 752 mmHg 87%
    12:00 +15°C° 0 mm 1 m/s 752 mmHg 83%
    13:00 +16°C° 0.1 mm 1 m/s 752 mmHg 82%
    14:00 +16°C° 0.1 mm 1 m/s 752 mmHg 81%
    15:00 +18°C° 0.1 mm 1 m/s 752 mmHg 80%
    16:00 +16°C° 0.1 mm 1 m/s 752 mmHg 81%
    17:00 +16°C° 0.1 mm 1 m/s 752 mmHg 83%
    18:00 +16°C° 0.1 mm 1 m/s 752 mmHg 84%
    19:00 +15°C° 0.2 mm 1 m/s 752 mmHg 88%
    20:00 +14°C° 0.2 mm 1 m/s 752 mmHg 91%
    21:00 +13°C° 0.2 mm 2 m/s 752 mmHg 95%
    22:00 +13°C° 0.1 mm 2 m/s 752 mmHg 96%
    23:00 +13°C° 0.1 mm 2 m/s 751 mmHg 96%
    Arată mai mult